User: anonymous   Login
Location: Unspecified
(0.0000°N, 0.0000°E)
Time: 22:35:48
(UTC+00:00)
Language:

Gurwin Techsat 1B - Orbit

View from above orbital plane
View from above orbital plane
View from above satellite
View from above satellite

Ground track
Ground track

The orbit data is extracted from the following two-line orbital elements,

1 25397U 98043D   18344.43863711 -.00000016  00000-0  12315-4 0  9997
2 25397  98.6689 282.0956 0000785 170.0565 190.0630 14.23656473 60804
Epoch (UTC): 10 December 2018 10:31:38
Eccentricity: 0.0000785
inclination: 98.6689°
perigee height: 812 km
apogee height: 813 km
right ascension of ascending node: 282.0956°
argument of perigee: 170.0565°
revolutions per day: 14.23656473
mean anomaly at epoch: 190.0630°
orbit number at epoch: 6080

The dashed part of the orbit path shows where the satellite is in the earth's shadow,  

DLR